Location: Unspecified
(0.0000°N, 0.0000°E)
Time: 12:34:08
(UTC+00:00)

RS-2 - Visible Passes

Search period start: 28 June 2022 00:00
Search period end: 08 July 2022 00:00
Orbit: 1685 x 1705 km, 82.5° (Epoch: 27 June)

Date Brightness Start Highest point End Pass type
(mag) Time Alt. Az. Time Alt. Az. Time Alt. Az.
28 Jun ? 02:34:24 10° N 02:43:44 58° E 02:43:44 58° E visible
28 Jun ? 04:38:34 10° NW 04:44:01 19° W 04:44:01 19° W visible
29 Jun ? 02:38:52 10° N 02:47:14 63° NE 02:47:14 63° NE visible
29 Jun ? 04:44:36 10° WNW 04:47:32 14° W 04:47:32 14° W visible
30 Jun ? 02:43:25 10° N 02:50:53 59° NNE 02:50:53 59° NNE visible
01 Jul ? 02:48:03 10° N 02:54:37 50° N 02:54:37 50° N visible
02 Jul ? 00:57:39 10° ENE 00:58:09 11° ENE 00:58:09 11° ENE visible
02 Jul ? 02:52:45 10° N 02:58:28 41° NNW 02:58:28 41° NNW visible
03 Jul ? 01:00:35 10° NE 01:02:03 13° ENE 01:02:03 13° ENE visible
03 Jul ? 02:57:33 10° NNW 03:02:23 34° NNW 03:02:23 34° NNW visible
04 Jul ? 01:04:05 10° NE 01:06:01 15° NE 01:06:01 15° NE visible
04 Jul ? 03:02:25 10° NNW 03:06:21 27° NNW 03:06:21 27° NNW visible
05 Jul ? 01:07:53 10° NE 01:10:03 16° NE 01:10:03 16° NE visible
05 Jul ? 03:07:23 10° NNW 03:10:23 22° NW 03:10:23 22° NW visible
06 Jul ? 01:11:52 10° NNE 01:14:08 17° NE 01:14:08 17° NE visible
06 Jul ? 03:12:28 10° NNW 03:14:28 17° NW 03:14:28 17° NW visible
07 Jul ? 01:16:02 10° NNE 01:18:15 18° NNE 01:18:15 18° NNE visible
07 Jul ? 03:17:40 10° NW 03:18:36 13° NW 03:18:36 13° NW visible
